This is the latest recevied weather packets stored in our database for station/object N4QD-13. If no packets are shown the sender has not sent any weather packets the latest 10 day(s).
| Time | Temp. | Humidity | Pressure | Rain* | Wind** | Luminosity | Snow |
|---|---|---|---|---|---|---|---|
| 1777478210 | 15° C | 98% | 1013.5 hPa | 0 mm | - | 81 W/m² | - |
| 1777477907 | 15.56° C | 97% | 1013.6 hPa | 0 mm | - | 85 W/m² | - |
| 1777477602 | 15.56° C | 95% | 1013.7 hPa | 0 mm | - | 81 W/m² | - |
| 1777477298 | 15.56° C | 96% | 1013.6 hPa | 0 mm | - | 80 W/m² | - |
| 1777476995 | 15.56° C | 96% | 1013.5 hPa | 0 mm | - | 95 W/m² | - |
| 1777476693 | 15.56° C | 95% | 1013.9 hPa | 0 mm | - | 97 W/m² | - |
| 1777476389 | 15.56° C | 95% | 1013.9 hPa | 0 mm | - | 79 W/m² | - |
| 1777476087 | 16.11° C | 94% | 1013.7 hPa | 0 mm | - | 75 W/m² | - |
| 1777475787 | 16.11° C | 94% | 1013.8 hPa | 0 mm | - | 100 W/m² | - |
| 1777475484 | 16.11° C | 93% | 1013.6 hPa | 0 mm | - | 126 W/m² | - |
| 1777475179 | 16.11° C | 92% | 1013.5 hPa | 0 mm | - | 117 W/m² | - |
| 1777474876 | 16.67° C | 92% | 1013.6 hPa | 0 mm | - | 156 W/m² | - |
| 1777474571 | 16.67° C | 92% | 1013.5 hPa | 0 mm | - | 224 W/m² | - |
| 1777474268 | 16.67° C | 92% | 1013.5 hPa | 0 mm | - | 274 W/m² | - |
| 1777473965 | 16.67° C | 92% | 1013.8 hPa | 0 mm | - | 242 W/m² | - |
| 1777473663 | 16.67° C | 93% | 1014 hPa | 0 mm | - | 200 W/m² | - |
| 1777473359 | 16.67° C | 93% | 1014 hPa | 0 mm | - | 200 W/m² | - |
| 1777473055 | 16.11° C | 93% | 1013.9 hPa | 0 mm | - | 197 W/m² | - |
| 1777472751 | 16.67° C | 94% | 1014.2 hPa | 0 mm | - | 170 W/m² | - |
| 1777472448 | 16.11° C | 94% | 1014 hPa | 0 mm | - | 171 W/m² | - |
| 1777472146 | 16.11° C | 95% | 1014.5 hPa | 0 mm | - | 143 W/m² | - |
| 1777471845 | 16.11° C | 95% | 1014.4 hPa | 0 mm | - | 186 W/m² | - |
| 1777471542 | 15.56° C | 95% | 1014.3 hPa | 0 mm | - | 139 W/m² | - |
| 1777471239 | 16.11° C | 95% | 1014.4 hPa | 0 mm | - | 96 W/m² | - |
| 1777470936 | 15.56° C | 96% | 1014.4 hPa | 0 mm | - | 81 W/m² | - |
* Rain latest hour (hover to see other rain measurements)
** Current wind speed in m/s (hover to see current wind gust speed)